Tracking 28790 objects as of 19-Apr-2024
HD Live streaming from Space Station
objects crossing your sky now

DELTA 1 DEB

Track DELTA 1 DEB now!
10-day predictions


NORAD ID: 7191
Int'l Code: 1973-086EZ
Perigee: 1,429.0 km
Apogee: 1,828.9 km
Inclination: 102.2 °
Period: 118.7 minutes
Semi major axis: 7999 km
RCS: 0.0206 m2 (small)
Launch date: November 6, 1973
Source: United States (US)
Launch site: AIR FORCE WESTERN TEST RANGE (AFWTR)

Note: This is SATELLITE DEBRIS
Your satellite tracking list
Your tracking list is empty




NASA's NSSDC Master Catalog

Two Line Element Set (TLE):
1  7191U 73086EZ  24108.61522203 -.00000013  00000-0  29306-3 0  9996
2  7191 102.1655  23.1570 0249944 301.8810 177.1934 12.13304982802916
Source of the keplerian elements: AFSPC